Flag for Canada Weather past 2 weeks in Saguenay, Quebec, Canada

Now
1 °F

Frigid.


Feels Like: -23 °F
Forecast: -16 / -7 °F
Wind: 24 mph from Northwest

Location: Jonquiere Airport

Current Time: Jan 25, 2015 at 7:48:54 PM

Latest Report: Jan 25, 2015 at 7:00 PM


Visibility: N/A

Pressure: 29.88 "Hg

Humidity: 70%

Dew point: -7 °F

Location of SaguenayLocation

Historic Weather in Saguenay — Graph

°F

Saguenay temperature yesterday

Maximum temperature yesterday: 28 °F (at 12:00 AM)
Minimum temperature yesterday: 21 °F (at 3:00 AM)
Average temperature yesterday: 25 °F

Past Weeks' High & Low Weather Summary

 TemperatureHumidityPressure
High33 °F (Jan 19, 6:00 AM)100% (Jan 19, 7:00 AM)30.77 "Hg (Jan 19, 7:00 AM)
Low-21 °F (Jan 14, 6:00 AM)49% (Jan 17, 3:00 PM)29.20 "Hg (Jan 24, 11:00 PM)
Average4 °F79%30.01 "Hg
* Reported Jan 10 6:00 PM — Jan 25 6:00 PM, Saguenay, Weather by CustomWeather, © 2014

Note: Actual official high and low records may vary slightly from our data, if they occured in-between our weather recording intervals... More about our weather records

Advertising

Saguenay weather history for previous 24 hours

 ConditionsComfort  
Time TempWeatherWind HumidityBarometerVisibility
6:00 PM
Jan 25
4 °FFrigid.21 mph64%29.84 "HgN/A
5:00 PM3 °FFrigid.22 mph69%29.79 "HgN/A
4:00 PM3 °FFrigid.24 mph74%29.74 "HgN/A
3:00 PM4 °FFrigid.22 mph78%29.69 "HgN/A
2:00 PM3 °FFrigid.24 mph79%29.64 "HgN/A
1:00 PM1 °FFrigid.26 mph80%29.60 "HgN/A
12:00 PM0 °FFrigid.28 mph87%29.56 "HgN/A
11:00 AM0 °FFrigid.28 mph80%29.52 "HgN/A
10:00 AM1 °FFrigid.24 mph81%29.49 "HgN/A
9:00 AM1 °FFrigid.26 mph82%29.45 "HgN/A
8:00 AM1 °FFrigid.22 mph82%29.44 "HgN/A
7:00 AM2 °FFrigid.17 mph82%29.42 "HgN/A
6:00 AM2 °FFrigid.17 mph83%29.42 "HgN/A
5:00 AM2 °FFrigid.21 mph83%29.41 "HgN/A
4:00 AM6 °FFrigid.21 mph79%29.38 "HgN/A
3:00 AM8 °FFrigid.21 mph87%29.34 "HgN/A
2:00 AM11 °FCold.18 mph90%29.29 "HgN/A
1:00 AM14 °FCold.21 mph90%29.25 "HgN/A
12:00 AM19 °FCold.20 mph90%29.22 "HgN/A
11:00 PM
Jan 24
26 °FChilly.5 mph92%29.20 "HgN/A
10:00 PM25 °FChilly.2 mph100%29.23 "HgN/A
9:00 PM25 °FChilly.5 mph100%29.26 "HgN/A
8:00 PM25 °FChilly.2 mph94%29.28 "HgN/A
7:00 PM25 °FChilly.2 mph94%29.30 "HgN/A
Weather by CustomWeather, © 2014

See weather overviewHow to use our weather pages